Погода в Свиштове

Болгария     43°37′06″N   25°20′15″E
темп.,
°C
ветер,
м/с
пор.,
м/с
влажн.,
%
обл.,
%
осадки,
мм/ч
давл.,
гПа
погр.,
м
13 июня, вс
вс1300:00+16ююз22894 0.0 101413
03:00+14юз22871 0.0 101426
06:00+14юз35875 0.0 101378
09:00+20зюз51168100 0.0 1013734
12:00+20з91378100 0.1 1013976
15:00+21з91473100 1.4 10111490
18:00+22зсз9145483 0.9 10101487
21:00+14вюв489520 5.8 1014260
14 июня, пн
пн1400:00+13всв11969 1.6 101613
03:00+13ююз239581 2.0 1016103
06:00+12зюз3595100 1.0 1015126
09:00+16з34733 1.2 1016468
12:00+19зсз45595 1.5 10151401
15:00+20сз5550100 2.2 10141950
18:00+19сз565958 0.3 10141069
21:00+15всв2682100 1.7 1015135
15 июня, вт
вт1500:00+13ссв118839 1.9 101621
03:00+12зсз239412 2.3 101772
06:00+10зюз379621 0.0 1017178
09:00+15з4680100 0.0 1017483
12:00+19зсз5659100 0.0 10171241
15:00+18сз3766100 0.0 1016574
18:00+21зсз2454100 0.0 10151164
21:00+18з226472 0.0 101513
16 июня, ср
ср1600:00+15з116967 0.0 101511
03:00+16з236697 0.0 101582
06:00+13з238166 0.0 101548
09:00+17з347567 0.0 1016245
12:00+22зсз34595 0.0 1016827
15:00+25сз334782 0.0 10152105
18:00+23зюз1164100 0.0 101643
21:00+20ю11705 0.0 101611
17 июня, чт
чт1700:00+17ю117753 0.0 101711
03:00+17ююз228163 0.3 101815
06:00+17юз228460 0.1 101833
09:00+21з23705 0.1 1019388
12:00+25зсз33560 0.0 1019982
15:00+27с22460 0.0 10171835
18:00+27св22455 0.0 10171968
21:00+22вюв226827 0.0 101816